Cloud_Cover
94 100 87 74 62 1 0 0 0 1 1 0 2 5 5 3 5 4 5 2 5 5 5 5 6 90 100 100 99 92 100 100 100 100 7 2 26 100
32 5 5 88 31 40 51 5 3 2 4 0 0 0 5 5 6 52 12 5 0 5 5 5 5 5 5 5 5 5 98 100 100 100 100 61 5 28
37 6 30 15 5 35 99 72 5 5 5 5 4 1 4 5 5 5 97 66 5 0 5 5 5 5 5 5 5 5 5 8 68 24 23 84 96 94
68 5 11 35 5 35 99 100 5 5 5 4 2 5 5 5 66 100 100 76 90 30 5 5 5 5 5 5 5 5 5 5 5 5 5 11 100 80
24 16 5 5 5 22 38 100 100 5 6 5 5 5 77 99 97 7 14 32 15 78 13 0 5 5 5 5 5 5 5 5 5 5 5 5 8 15
84 82 51 18 82 5 63 100 93 91 5 5 5 8 96 100 100 99 73 95 88 25 5 0 5 4 1 3 5 0 5 5 5 5 5 4 5 5
91 77 96 21 6 5 97 100 99 14 5 5 5 60 100 100 57 100 100 100 100 14 5 4 0 0 0 0 0 0 5 5 4 5 5 5 5 5
100 67 9 5 80 88 100 82 98 21 93 90 87 98 100 100 87 100 100 100 29 5 5 5 5 1 0 0 0 5 5 5 5 5 6 27 5 5
94 100 100 99 100 100 96 100 74 64 69 94 100 100 100 85 100 100 86 51 58 8 9 13 5 5 0 3 0 5 4 2 11 67 73 6 5 5
100 100 99 100 80 38 76 100 89 91 69 86 100 100 100 100 100 93 90 97 83 11 5 10 5 5 1 1 3 3 1 32 91 99 7 12 31 5
100 99 47 17 7 7 59 79 100 98 93 100 100 98 100 100 91 100 83 92 46 5 5 7 5 5 5 4 0 1 53 80 45 5 5 72 20 5
0 5 5 5 8 100 85 100 94 100 100 100 100 100 100 100 93 33 5 5 9 98 98 66 22 72 77 5 4 2 2 4 5 5 48 17 14 5
6 58 92 56 63 65 86 100 100 100 100 100 100 100 100 87 5 3 3 5 5 5 5 92 77 96 100 93 5 5 5 5 5 1 5 5 5 51
100 100 100 100 100 68 92 100 100 100 100 100 100 100 94 6 5 5 5 5 21 22 5 5 36 80 100 100 96 34 37 27 5 5 5 5 4 5
100 100 100 100 94 83 100 100 100 100 100 100 100 80 20 5 5 5 5 5 5 5 5 5 64 84 100 100 95 98 90 77 78 5 5 5 5 5
100 100 100 100 100 100 100 100 100 100 100 100 92 54 40 89 87 100 92 90 93 54 5 5 5 5 52 100 100 91 100 95 47 5 5 6 14 5
100 100 100 100 100 100 100 100 100 100 100 100 96 100 100 100 100 100 100 100 98 99 77 13 5 5 12 56 92 59 7 14 5 5 70 89 94 62
99 100 100 100 100 100 100 100 100 100 98 49 99 100 100 100 100 100 100 100 99 88 79 11 5 43 70 100 61 61 49 59 24 26 76 95 75 5
100 100 100 100 100 100 100 100 100 99 100 100 100 100 100 100 100 98 87 99 100 100 95 79 73 99 100 99 100 90 17 37 97 95 7 5 64 85
100 100 100 100 100 100 100 100 100 99 100 100 100 100 100 99 100 100 88 97 97 93 94 100 100 90 100 100 100 100 100 62 83 72 83 98 79 10
100 100 100 100 100 100 100 100 100 100 100 100 99 100 99 100 100 98 97 97 100 100 100 100 99 100 100 100 100 100 100 100 98 99 100 100 100 80
100 100 100 100 100 100 100 100 100 100 100 100 99 92 96 100 100 99 100 100 100 100 100 100 100 100 100 100 100 100 100 100 100 100 97 100 100 100
100 100 100 98 100 100 100 100 100 100 100 100 99 100 100 99 96 100 100 100 100 100 100 100 100 100 100 100 100 100 100 100 100 100 100 100 100 100